When you browse on this site, cookies collect data to enhance your experience and personalize the content and advertising you see.
Visit our Privacy Policy to learn more. By continuing to use the site, you agree to this use of cookies and data.
  • In Netherlands
  • List of Countries
  • For 7 days
  • Water Temperature
  • Satellite Maps
  • Weather Map
  • Weather Widgets
  • user-avatar
    Login

    Hourly Weather Prutz

    Today, 18 January, Friday

    Time Temperature Precipitation Wind Pressure Humidity
    00:00 -6°C° 0.5 mm 2 mps 625 mmHg 96%
    01:00 -7°C° 0 mm 2 mps 625 mmHg 96%
    02:00 -8°C° 0.1 mm 2 mps 625 mmHg 95%
    03:00 -9°C° 0.1 mm 2 mps 625 mmHg 94%
    04:00 -9°C° 0.1 mm 1 mps 625 mmHg 93%
    05:00 -9°C° 0.1 mm 1 mps 625 mmHg 93%
    06:00 -9°C° 0.1 mm 1 mps 626 mmHg 94%
    07:00 -10°C° 0 mm 2 mps 626 mmHg 94%
    08:00 -10°C° 0 mm 2 mps 626 mmHg 93%
    09:00 -9°C° 0 mm 2 mps 627 mmHg 92%
    10:00 -8°C° 0 mm 2 mps 628 mmHg 91%
    11:00 -8°C° 0 mm 2 mps 628 mmHg 89%
    12:00 -7°C° 0 mm 2 mps 628 mmHg 86%
    13:00 -7°C° 0 mm 2 mps 628 mmHg 83%
    14:00 -7°C° 0 mm 1 mps 628 mmHg 84%
    15:00 -7°C° 0 mm 1 mps 628 mmHg 86%
    16:00 -8°C° 0 mm 1 mps 627 mmHg 87%
    17:00 -10°C° 0 mm 1 mps 627 mmHg 87%
    18:00 -11°C° 0 mm 1 mps 627 mmHg 86%
    19:00 -15°C° 0 mm 2 mps 626 mmHg 86%
    20:00 -15°C° 0 mm 2 mps 627 mmHg 83%
    21:00 -14°C° 0 mm 2 mps 627 mmHg 79%
    22:00 -15°C° 0 mm 3 mps 627 mmHg 76%
    23:00 -15°C° 0 mm 3 mps 627 mmHg 74%

    Tomorrow, 19 January, Saturday

    Time Temperature Precipitation Wind Pressure Humidity
    00:00 -15°C° 0 mm 3 mps 627 mmHg 72%
    01:00 -15°C° 0 mm 3 mps 627 mmHg 70%
    02:00 -14°C° 0 mm 3 mps 627 mmHg 70%
    03:00 -14°C° 0 mm 3 mps 627 mmHg 71%
    04:00 -14°C° 0 mm 3 mps 627 mmHg 71%
    05:00 -13°C° 0 mm 3 mps 627 mmHg 71%
    06:00 -13°C° 0 mm 3 mps 627 mmHg 72%
    07:00 -12°C° 0 mm 2 mps 627 mmHg 72%
    08:00 -9°C° 0 mm 2 mps 627 mmHg 74%
    09:00 -8°C° 0 mm 2 mps 627 mmHg 76%
    10:00 -7°C° 0 mm 2 mps 628 mmHg 78%
    11:00 -4°C° 0 mm 1 mps 628 mmHg 75%
    12:00 -2°C° 0 mm 1 mps 628 mmHg 72%
    13:00 -1°C° 0 mm 1 mps 628 mmHg 70%
    14:00 -2°C° 0 mm 1 mps 627 mmHg 74%
    15:00 -2°C° 0 mm 1 mps 627 mmHg 79%
    16:00 -4°C° 0 mm 0 mps 626 mmHg 84%
    17:00 -4°C° 0 mm 1 mps 626 mmHg 84%
    18:00 -7°C° 0 mm 1 mps 626 mmHg 84%
    19:00 -9°C° 0 mm 2 mps 625 mmHg 83%
    20:00 -10°C° 0 mm 2 mps 625 mmHg 83%
    21:00 -10°C° 0 mm 2 mps 625 mmHg 83%
    22:00 -12°C° 0 mm 2 mps 625 mmHg 82%
    23:00 -12°C° 0 mm 2 mps 625 mmHg 82%

    Day after tomorrow, 20 January, Sunday

    Time Temperature Precipitation Wind Pressure Humidity
    00:00 -13°C° 0 mm 2 mps 625 mmHg 81%
    01:00 -13°C° 0 mm 2 mps 625 mmHg 81%
    02:00 -13°C° 0 mm 2 mps 624 mmHg 80%
    03:00 -13°C° 0 mm 2 mps 624 mmHg 79%
    04:00 -13°C° 0 mm 2 mps 624 mmHg 79%
    05:00 -13°C° 0 mm 2 mps 624 mmHg 79%
    06:00 -11°C° 0 mm 1 mps 624 mmHg 79%
    07:00 -11°C° 0 mm 1 mps 625 mmHg 79%
    08:00 -9°C° 0 mm 1 mps 625 mmHg 79%
    09:00 -8°C° 0 mm 1 mps 626 mmHg 79%
    10:00 -6°C° 0 mm 1 mps 627 mmHg 79%
    11:00 -4°C° 0 mm 1 mps 627 mmHg 77%
    12:00 -3°C° 0 mm 1 mps 627 mmHg 75%
    13:00 -1°C° 0 mm 1 mps 627 mmHg 72%
    14:00 -2°C° 0 mm 1 mps 627 mmHg 78%
    15:00 -3°C° 0 mm 1 mps 627 mmHg 83%
    16:00 -3°C° 0 mm 1 mps 627 mmHg 89%
    17:00 -6°C° 0.1 mm 1 mps 627 mmHg 90%
    18:00 -7°C° 0.1 mm 1 mps 627 mmHg 92%
    19:00 -8°C° 0.1 mm 0 mps 627 mmHg 93%
    20:00 -8°C° 0.1 mm 0 mps 627 mmHg 92%
    21:00 -9°C° 0.1 mm 1 mps 627 mmHg 91%
    22:00 -9°C° 0.1 mm 1 mps 628 mmHg 90%
    23:00 -9°C° 0.1 mm 1 mps 628 mmHg 90%

    21 January, Monday

    Time Temperature Precipitation Wind Pressure Humidity
    00:00 -9°C° 0.1 mm 1 mps 628 mmHg 90%
    01:00 -10°C° 0.1 mm 1 mps 628 mmHg 90%
    02:00 -10°C° 0 mm 1 mps 628 mmHg 90%
    03:00 -10°C° 0 mm 0 mps 628 mmHg 91%
    04:00 -10°C° 0 mm 0 mps 628 mmHg 91%
    05:00 -10°C° 0 mm 0 mps 628 mmHg 91%
    06:00 -11°C° 0 mm 1 mps 629 mmHg 92%
    07:00 -11°C° 0 mm 1 mps 629 mmHg 92%
    08:00 -9°C° 0 mm 1 mps 630 mmHg 91%
    09:00 -8°C° 0 mm 1 mps 630 mmHg 89%
    10:00 -6°C° 0 mm 1 mps 631 mmHg 88%
    11:00 -6°C° 0 mm 1 mps 631 mmHg 86%
    12:00 -4°C° 0 mm 1 mps 631 mmHg 84%
    13:00 -3°C° 0 mm 1 mps 631 mmHg 82%
    14:00 -3°C° 0 mm 1 mps 631 mmHg 84%
    15:00 -4°C° 0 mm 1 mps 631 mmHg 87%
    16:00 -4°C° 0 mm 1 mps 631 mmHg 89%
    17:00 -7°C° 0 mm 1 mps 630 mmHg 91%
    18:00 -9°C° 0 mm 1 mps 630 mmHg 93%
    19:00 -12°C° 0 mm 0 mps 629 mmHg 95%
    20:00 -12°C° 0 mm 1 mps 629 mmHg 91%
    21:00 -13°C° 0 mm 1 mps 629 mmHg 88%
    22:00 -15°C° 0 mm 2 mps 629 mmHg 85%
    23:00 -15°C° 0 mm 2 mps 629 mmHg 77%

    22 January, Tuesday

    Time Temperature Precipitation Wind Pressure Humidity
    00:00 -15°C° 0 mm 2 mps 629 mmHg 69%
    01:00 -15°C° 0 mm 2 mps 628 mmHg 61%
    02:00 -15°C° 0 mm 2 mps 628 mmHg 56%
    03:00 -15°C° 0 mm 2 mps 627 mmHg 51%
    04:00 -15°C° 0 mm 2 mps 627 mmHg 46%
    05:00 -15°C° 0 mm 2 mps 627 mmHg 45%
    06:00 -15°C° 0 mm 2 mps 626 mmHg 43%
    07:00 -15°C° 0 mm 2 mps 626 mmHg 42%
    08:00 -13°C° 0 mm 2 mps 626 mmHg 47%
    09:00 -10°C° 0 mm 2 mps 626 mmHg 53%
    10:00 -8°C° 0 mm 2 mps 626 mmHg 59%
    11:00 -6°C° 0 mm 2 mps 626 mmHg 59%
    12:00 -4°C° 0 mm 2 mps 625 mmHg 58%
    13:00 -3°C° 0 mm 2 mps 625 mmHg 57%
    14:00 -4°C° 0 mm 2 mps 624 mmHg 63%
    15:00 -3°C° 0 mm 1 mps 622 mmHg 68%
    16:00 -4°C° 0 mm 1 mps 621 mmHg 73%
    17:00 -7°C° 0 mm 2 mps 620 mmHg 72%
    18:00 -8°C° 0 mm 2 mps 620 mmHg 71%
    19:00 -10°C° 0 mm 3 mps 619 mmHg 70%
    20:00 -9°C° 0 mm 2 mps 619 mmHg 69%
    21:00 -9°C° 0 mm 2 mps 618 mmHg 69%
    22:00 -9°C° 0 mm 2 mps 618 mmHg 68%
    23:00 -10°C° 0.1 mm 2 mps 617 mmHg 71%

    23 January, Wednesday

    Time Temperature Precipitation Wind Pressure Humidity
    00:00 -10°C° 0.1 mm 2 mps 616 mmHg 74%
    01:00 -9°C° 0.1 mm 1 mps 616 mmHg 77%
    02:00 -9°C° 0.4 mm 1 mps 615 mmHg 83%
    03:00 -9°C° 0.4 mm 1 mps 615 mmHg 89%
    04:00 -9°C° 0.4 mm 0 mps 614 mmHg 95%
    05:00 -9°C° 0.4 mm 0 mps 614 mmHg 95%
    06:00 -9°C° 0.4 mm 1 mps 613 mmHg 95%
    07:00 -9°C° 0.4 mm 1 mps 613 mmHg 95%
    08:00 -9°C° 0 mm 1 mps 613 mmHg 93%
    09:00 -9°C° 0 mm 1 mps 612 mmHg 90%
    10:00 -8°C° 0 mm 1 mps 612 mmHg 88%
    11:00 -8°C° 0.2 mm 1 mps 611 mmHg 89%
    12:00 -9°C° 0.2 mm 2 mps 611 mmHg 90%
    13:00 -9°C° 0.2 mm 2 mps 610 mmHg 91%
    14:00 -9°C° 0.6 mm 2 mps 610 mmHg 92%
    15:00 -12°C° 0.6 mm 3 mps 609 mmHg 94%
    16:00 -12°C° 0.6 mm 3 mps 609 mmHg 95%
    17:00 -13°C° 0.4 mm 3 mps 609 mmHg 96%
    18:00 -14°C° 0.4 mm 3 mps 608 mmHg 96%
    19:00 -14°C° 0.4 mm 3 mps 608 mmHg 97%
    20:00 -15°C° 0.4 mm 3 mps 608 mmHg 97%
    21:00 -15°C° 0.4 mm 3 mps 608 mmHg 97%
    22:00 -14°C° 0.4 mm 2 mps 608 mmHg 97%
    23:00 -14°C° 0.5 mm 2 mps 608 mmHg 97%
    Show more